Lexington Weather

Lexington, Massachusetts, USA

78°F
7/25/2024 12:01pm 
  • Lexington Conditions: Mostly cloudy
  • Temperature: 77.7°F / 25.4°CWarmer 1.4°F than last hour.
  • Dew Point: 72.5°FIncreased 0.7°Fsince last hour.
  • Relative Humidity: 84%Decreased 2.0% since last hour.
  • Wind: Wind from SW SW Calm, 10-min avg: 2 mph, gust: 5 mph
  • Barometer: 29.94 inFalling 0.02  inHg/hr Falling Slowly
  • Visibility: 10 miles
  • Rain Today: 0.00 in
  •   

Regional Weather Roundup
for Boston, MA

        
000
ASUS41 KBOX 210010
RWRBOX

REGIONAL WEATHER ROUNDUP
NATIONAL WEATHER SERVICE BOSTON/NORTON MA
800 PM EDT SAT JUL 20 2024

NOTE:  "FAIR" INDICATES FEW OR NO CLOUDS BELOW 12,000 FEET WITH NO 
SIGNIFICANT WEATHER AND/OR OBSTRUCTIONS TO VISIBILITY.

MAZALL-210100-
EASTERN MASSACHUSETTS
  
CITY           SKY/WX    TMP DP  RH WIND       PRES   REMARKS
BOSTON         CLOUDY    81  63  54 SW13G25   29.99S                  
6HR MIN TEMP:  81; 6HR MAX TEMP:  87;                                

BEVERLY        CLEAR     80  59  48 SW8       29.98R                  
LAWRENCE       CLEAR     80  60  50 SW7       30.00R                  
BEDFORD        PTCLDY    78  63  59 SW8       29.98S                  
NORWOOD        MOCLDY    81  68  64 S7        30.01R                  
MARSHFIELD     CLEAR     77  64  65 SW7       30.00S                  
PLYMOUTH       CLEAR     77  64  64 SW12G21   30.02S                  
TAUNTON        CLEAR     78  65  63 SW7       30.02R                  
NEW BEDFORD    CLEAR     76  67  73 SW10      30.03S                  
$$

MAZALL-210100-
CAPE COD AND THE ISLANDS
  
CITY           SKY/WX    TMP DP  RH WIND       PRES   REMARKS
FALMOUTH       NOT AVBL                                               
HYANNIS        CLEAR     74  67  78 SW21G28   30.03R                  
CHATHAM        CLEAR     75  69  81 MISG      30.04S                  
PROVINCETOWN   CLEAR     72  67  84 SW15      30.02S                  
NANTUCKET      CLEAR     72  69  90 SW10      30.06S                  
MARTHAS VNYRD  CLEAR     74  66  76 SW9       30.05S                  
$$
 
MAZALL-210100-
CENTRAL AND WESTERN MASSACHUSETTS
  
CITY           SKY/WX    TMP DP  RH WIND       PRES   REMARKS
WORCESTER      CLEAR     73  66  78 SW8       30.04S                  
6HR MIN TEMP:  73; 6HR MAX TEMP:  82; 6HR PCP: TRACE;                

FITCHBURG      CLEAR     79  65  62 SW5       30.01S                  
ORANGE           N/A     76  66  71 S5        30.02S                  
SPRINGFIELD    CLOUDY    72  69  89 S8        29.99S                  
WESTFIELD      PTCLDY    71  69  93 S6        30.02R                  
NORTH ADAMS    PTCLDY    74  67  78 N3        30.02R                  
PITTSFIELD     PTCLDY    71  64  78 W5        30.04R                  
$$
 
RIZALL-210100-
RHODE ISLAND
  
CITY           SKY/WX    TMP DP  RH WIND       PRES   REMARKS
PROVIDENCE     MOCLDY    76  66  71 SW13      30.04R                  
6HR MIN TEMP:  76; 6HR MAX TEMP:  83;                                

NEWPORT        CLEAR     72  66  81 SW8       30.04S                  
BLOCK ISLAND   PTCLDY    71  67  87 SW13        N/A                   
SMITHFIELD     CLOUDY    69  69 100 VRB7      30.05R                  
WESTERLY       PTCLDY    74  65  73 S5        30.05R                  
$$
 
CTZALL-210100-
CONNECTICUT
  
CITY           SKY/WX    TMP DP  RH WIND       PRES   REMARKS
BRADLEY INTL   MOCLDY    72  67  84 S6        30.02S                  
6HR MIN TEMP:  70; 6HR MAX TEMP:  87; 6HR PCP:  0.15;                

HARTFORD       PTCLDY    71  69  93 CALM      30.02S                  
PLAINVILLE     PTCLDY    72  71  97 CALM      30.02F                  
BRIDGEPORT     PTCLDY    78  64  61 SW13      30.03S                  
DANBURY        MOCLDY    77  63  61 S8        30.05S                  
GROTON         PTCLDY    73  67  81 SW7       30.04R                  
NEW HAVEN      PTCLDY    79  68  69 VRB6      30.04S                  
CHESTER        PTCLDY    75  66  73 S6        30.05F                  
MERIDEN        PTCLDY    78  60  53 S6        30.03S                  
WILLIMANTIC    CLOUDY    68  66  93 CALM      30.04F                  
OXFORD         PTCLDY    74  63  68 VRB5      30.06S                  
$$

MEZ002-015-021-024-NHZ003-005-008-011-012-014-VTZ005-008-210100-
NORTHERN NEW ENGLAND
  
CITY           SKY/WX    TMP DP  RH WIND       PRES   REMARKS
PORTLAND ME    PTCLDY    73  60  63 S5        29.96S                  
6HR MIN TEMP:  73; 6HR MAX TEMP:  85;                                

BANGOR ME      PTCLDY    77  58  51 SW6       29.94R                  
CONCORD NH     CLEAR     79  54  41 SW6       29.98R                  
MANCHESTER NH  CLOUDY    81  61  50 SW7       29.97S                  
NASHUA NH      PTCLDY    78  65  63 CALM      29.99S                  
PORTSMOUTH NH  MOCLDY    80  60  50 SW7       29.96R                  
JAFFREY NH     CLEAR     77  63  61 SW6       30.03S                  
KEENE NH       CLEAR     76  65  68 VRB3      30.00R                  
BURLINGTON VT  PTCLDY    80  53  39 W5        29.96S                  
MT. WASHINGTON MOCLDY    50  46  87 W38         N/A                   
$$

NYZ052-076-210100-
EASTERN NEW YORK
  
CITY           SKY/WX    TMP DP  RH WIND       PRES   REMARKS
ALBANY         MOCLDY    78  66  66 S5        30.01R                  
6HR MIN TEMP:  78; 6HR MAX TEMP:  86;                                

NEW YORK CITY  CLOUDY    81  58  45 S14       30.03S                  
6HR MIN TEMP:  81; 6HR MAX TEMP:  86;                                

$$
 
ANZALL-210100-
MARINE OBSERVATIONS
  
STATION/POSITION TIME  TEMP    WIND        PRES    VSBY  WAVE
                       AIR SEA DIR/SP/G                  HT/PER
                 (UTC) (F)     (DEG/KT/KT) (MB)    (MI)  (FT/S)
BOSTON BUOY      2350   72 67  200/ 10/ 12 1015.9R         1/ 6
BUZZARDS BAY     2300   73     230/ 18/ 20 1017.5R
NANTUCKET SOUND  2350   75 76  240/ 16/ 19 1016.9R         2/ 3
MASS BAY-STELLWA 2204   69 64  180/  8/ 10 1015.5F  1 7/8  1/ 8
ISLE OF SHOALS   2300   74     200/ 13/ 14 1014.1R
S OF BLOCK IS    2326      74                N/A           3/ 8
$$

......................KEY.........................
  SKY/WX - SKY CONDITION/PRESENT WEATHER
  TMP    - TEMPERATURE IN FAHRENHEIT
  DWPT   - DEWPOINT IN FAHRENHEIT
  RH     - RELATIVE HUMIDITY IN PERCENT
  WIND   - DIRECTION AND SPEED IN MPH
  PRES   - MEAN SEA LEVEL PRESSURE IN INCHES OF HG
  WCI    - WIND CHILL INDEX
  VSB    - VISIBILITY IN MILES
  HX     - HEAT INDEX
  TC     - TEMPERATURE IN CELSIUS
  VRB    - VARIABLE WIND DIRECTION
  N/A    - NOT AVAILABLE
  
      

Other recent Regional Weather Roundups

Thu Jul 25, 11:10am EDT

Thu Jul 25, 10:10am EDT

Thu Jul 25, 9:10am EDT

Thu Jul 25, 8:10am EDT

Thu Jul 25, 7:10am EDT

Thu Jul 25, 6:10am EDT

Thu Jul 25, 5:10am EDT

Thu Jul 25, 4:10am EDT

Thu Jul 25, 3:10am EDT

Thu Jul 25, 2:10am EDT

Thu Jul 25, 1:10am EDT

Thu Jul 25, 12:10am EDT

Wed Jul 24, 11:10pm EDT

Wed Jul 24, 10:10pm EDT

Wed Jul 24, 9:10pm EDT

Wed Jul 24, 8:10pm EDT

Wed Jul 24, 7:10pm EDT

Wed Jul 24, 6:10pm EDT

Wed Jul 24, 5:10pm EDT

Wed Jul 24, 4:10pm EDT

Wed Jul 24, 3:10pm EDT

Wed Jul 24, 2:10pm EDT

Wed Jul 24, 1:10pm EDT

Wed Jul 24, 12:10pm EDT

Wed Jul 24, 11:10am EDT

Wed Jul 24, 10:10am EDT

Wed Jul 24, 9:10am EDT

Wed Jul 24, 8:10am EDT

Wed Jul 24, 7:10am EDT

Wed Jul 24, 6:10am EDT

Wed Jul 24, 5:10am EDT

Wed Jul 24, 4:10am EDT

Wed Jul 24, 3:10am EDT

Wed Jul 24, 2:10am EDT

Wed Jul 24, 1:10am EDT

Wed Jul 24, 12:10am EDT

Tue Jul 23, 11:10pm EDT

Tue Jul 23, 10:10pm EDT

Tue Jul 23, 9:10pm EDT

Tue Jul 23, 8:10pm EDT

Tue Jul 23, 7:10pm EDT

Tue Jul 23, 6:10pm EDT

Tue Jul 23, 5:10pm EDT

Tue Jul 23, 4:10pm EDT

Tue Jul 23, 3:10pm EDT

Tue Jul 23, 2:10pm EDT

Tue Jul 23, 1:10pm EDT

Tue Jul 23, 12:10pm EDT

Tue Jul 23, 11:10am EDT

Tue Jul 23, 10:10am EDT

Tue Jul 23, 10:10am EDT

Tue Jul 23, 9:10am EDT

Tue Jul 23, 8:10am EDT

Tue Jul 23, 7:10am EDT

Tue Jul 23, 6:10am EDT

Tue Jul 23, 5:10am EDT

Tue Jul 23, 4:10am EDT

Tue Jul 23, 3:10am EDT

Tue Jul 23, 2:10am EDT

Tue Jul 23, 1:10am EDT

Tue Jul 23, 12:10am EDT

Mon Jul 22, 11:10pm EDT

Mon Jul 22, 10:10pm EDT

Mon Jul 22, 9:10pm EDT

Mon Jul 22, 8:10pm EDT

Mon Jul 22, 7:10pm EDT

Mon Jul 22, 6:10pm EDT

Mon Jul 22, 5:10pm EDT

Mon Jul 22, 4:10pm EDT

Mon Jul 22, 3:10pm EDT

Mon Jul 22, 2:10pm EDT

Mon Jul 22, 1:10pm EDT

Mon Jul 22, 12:10pm EDT

Mon Jul 22, 11:10am EDT

Mon Jul 22, 10:10am EDT

Mon Jul 22, 9:10am EDT

Mon Jul 22, 8:10am EDT

Mon Jul 22, 7:10am EDT

Mon Jul 22, 6:10am EDT

Mon Jul 22, 5:10am EDT

Mon Jul 22, 4:10am EDT

Mon Jul 22, 3:10am EDT

Mon Jul 22, 2:10am EDT

Mon Jul 22, 1:10am EDT

Mon Jul 22, 12:10am EDT

Sun Jul 21, 11:10pm EDT

Sun Jul 21, 10:10pm EDT

Sun Jul 21, 9:10pm EDT

Sun Jul 21, 8:10pm EDT

Sun Jul 21, 7:10pm EDT

Sun Jul 21, 6:10pm EDT

Sun Jul 21, 5:10pm EDT

Sun Jul 21, 4:10pm EDT

Sun Jul 21, 3:10pm EDT

Sun Jul 21, 2:10pm EDT

Sun Jul 21, 1:10pm EDT

Sun Jul 21, 12:10pm EDT

Sun Jul 21, 11:10am EDT

Sun Jul 21, 10:10am EDT

Sun Jul 21, 9:10am EDT

Sun Jul 21, 8:10am EDT

Sun Jul 21, 7:10am EDT

Sun Jul 21, 6:10am EDT

Sun Jul 21, 5:10am EDT

Sun Jul 21, 4:10am EDT

Sun Jul 21, 3:10am EDT

Sun Jul 21, 2:10am EDT

Sun Jul 21, 1:10am EDT

Sun Jul 21, 12:10am EDT

Sat Jul 20, 11:10pm EDT

Sat Jul 20, 10:10pm EDT

Sat Jul 20, 9:10pm EDT

Sat Jul 20, 7:10pm EDT

Sat Jul 20, 6:10pm EDT

Sat Jul 20, 5:10pm EDT

Sat Jul 20, 4:10pm EDT

Sat Jul 20, 3:10pm EDT

Sat Jul 20, 2:10pm EDT

Sat Jul 20, 1:10pm EDT

Sat Jul 20, 12:10pm EDT

Sat Jul 20, 11:10am EDT

Sat Jul 20, 10:10am EDT

Sat Jul 20, 9:10am EDT

Sat Jul 20, 8:10am EDT

Sat Jul 20, 7:10am EDT

Sat Jul 20, 6:10am EDT

Sat Jul 20, 5:10am EDT

Sat Jul 20, 4:10am EDT

Sat Jul 20, 3:10am EDT

Sat Jul 20, 2:10am EDT

Sat Jul 20, 1:10am EDT

Sat Jul 20, 12:10am EDT

Fri Jul 19, 11:10pm EDT

Fri Jul 19, 10:10pm EDT

Fri Jul 19, 9:10pm EDT

Fri Jul 19, 8:10pm EDT

Fri Jul 19, 7:10pm EDT

Fri Jul 19, 6:10pm EDT

Fri Jul 19, 5:10pm EDT

Fri Jul 19, 4:10pm EDT

Fri Jul 19, 3:10pm EDT

Fri Jul 19, 2:10pm EDT

Fri Jul 19, 1:10pm EDT

Fri Jul 19, 12:10pm EDT

Fri Jul 19, 11:10am EDT

Fri Jul 19, 10:10am EDT

Fri Jul 19, 9:10am EDT

Fri Jul 19, 8:10am EDT

Fri Jul 19, 7:10am EDT

Fri Jul 19, 6:10am EDT

Fri Jul 19, 5:10am EDT

Fri Jul 19, 4:10am EDT

Fri Jul 19, 3:10am EDT

Fri Jul 19, 2:10am EDT

Fri Jul 19, 1:10am EDT

Fri Jul 19, 12:10am EDT

Thu Jul 18, 11:10pm EDT

Thu Jul 18, 10:10pm EDT

Thu Jul 18, 9:10pm EDT

Thu Jul 18, 8:10pm EDT

Thu Jul 18, 7:10pm EDT

Thu Jul 18, 6:10pm EDT

Thu Jul 18, 5:10pm EDT

Thu Jul 18, 4:10pm EDT

Thu Jul 18, 3:10pm EDT

Thu Jul 18, 2:10pm EDT

Thu Jul 18, 1:10pm EDT

Thu Jul 18, 12:10pm EDT